Location: Oriwa
(40.7500°S, 175.3333°E)
Time: 12:25:19
(UTC+00:00)

Terra - Pass Details

Date: 03 February 2023
Orbit: 695 x 696 km, 98.1° (Epoch: 31 March)

Event Time Altitude Azimuth Distance (km) Brightness Sun altitude
Rises 12:27:34 0° 190° (S) 3,118 6.2 -32.7°
Reaches altitude 10° 12:31:40 10° 225° (SW) 2,189 4.8 -32.7°
Maximum altitude 12:32:54 11° 240° (WSW) 2,120 4.6 -32.7°
Enters shadow 12:33:44 11° 250° (WSW) 2,147 4.5 -32.7°
